sat.trackr.live / text

‹ back to catalog

STARLINK-31034

NORAD 58785 · 2024-011W

PAYLOAD ACTIVE UNKNOWN

§ Identity

Operator
Country
US
Launch date
2024-01-14
Launch site
AFWTR
Launch vehicle
Mass (kg)
RCS (m²)

Purposes: comms

External: N2YO · Heavens-Above · Gunter

§ Orbital elements

Epoch: 2026-05-24T18:54:40.399776Z

Period
93.85 min
Inclination
53.1617°
Eccentricity
0.0001135
Mean motion
15.34390897 rev/d
Perigee alt
462.0 km
Apogee alt
463.5 km
Semi-major
6,840.9 km
B*
4.3353e-5
RAAN
277.0010°
Arg perigee
81.9618°
Mean anomaly
278.1513°
Rev number
13,339

§ Raw data

STARLINK-310341 58785U 24011W   26144.78796759  .00001088  00000+0  43353-4 0  99942 58785  53.1617 277.0010 0001135  81.9618 278.1513 15.34390897133393

JSON: /api/v1/satellites/58785 · /tle

For live sub-satellite position, see the globe view (requires WebGL).

§ Visibility from observer

Set your observer location to see the next 7 days of passes ≥ 10°. The values pass through the URL so the page stays shareable.

No JS? Fill the form by hand. The geolocation button needs JavaScript.